| time (UTC) | temp F | wind direction | speed knots | gust knots | rain 1hr in | rain 24hr in | rain mn in | humidity % | barometer mb |
| 20260508111514 | 60 | 248 | 2.6 | 6.1 | 0.00 | 0.00 | 0.00 | 70 | 1017.9 |
| 20260508110012 | 61 | 231 | 1.7 | 6.1 | 0.00 | 0.00 | 0.00 | 71 | 1017.9 |
| 20260508104507 | 59 | 228 | 0.9 | 7.0 | 0.00 | 0.00 | 0.00 | 75 | 1017.9 |
| 20260508103005 | 58 | 274 | 1.7 | 6.1 | 0.00 | 0.00 | 0.00 | 78 | 1017.9 |
| 20260508101600 | 57 | 220 | 1.7 | 7.0 | 0.00 | 0.00 | 0.00 | 80 | 1018.0 |
| 20260508100058 | 56 | 81 | 1.7 | 5.2 | 0.00 | 0.00 | 0.00 | 80 | 1017.9 |
| 20260508094556 | 55 | 205 | 0.9 | 4.3 | 0.00 | 0.00 | 0.00 | 83 | 1017.9 |
| 20260508093101 | 53 | 205 | 0.9 | 4.3 | 0.00 | 0.00 | 0.00 | 84 | 1018.1 |
| 20260508091551 | 52 | 111 | 0.9 | 2.6 | 0.00 | 0.00 | 0.00 | 85 | 1018.0 |
| 20260508090055 | 52 | 84 | 0.9 | 3.5 | 0.00 | 0.00 | 0.00 | 85 | 1018.0 |
| 20260508084544 | 53 | 211 | 0.0 | 3.5 | 0.00 | 0.00 | 0.00 | 85 | 1017.9 |
| 20260508083048 | 52 | 298 | 0.0 | 4.3 | 0.00 | 0.00 | 0.00 | 85 | 1017.7 |
| 20260508081542 | 52 | 204 | 0.0 | 1.7 | 0.00 | 0.00 | 0.00 | 86 | 1017.7 |
| 20260508080039 | 52 | 190 | 0.0 | 3.5 | 0.00 | 0.00 | 0.00 | 87 | 1017.5 |
| 20260508074534 | 51 | 155 | 0.9 | 3.5 | 0.00 | 0.00 | 0.00 | 88 | 1017.2 |
| 20260508073036 | 50 | 213 | 2.6 | 5.2 | 0.00 | 0.00 | 0.00 | 88 | 1017.1 |
| 20260508071532 | 49 | 215 | 1.7 | 4.3 | 0.00 | 0.00 | 0.00 | 89 | 1017.0 |
| 20260508070025 | 48 | 229 | 0.9 | 2.6 | 0.00 | 0.00 | 0.00 | 89 | 1017.0 |
| 20260508064527 | 48 | 226 | 0.9 | 4.3 | 0.00 | 0.00 | 0.00 | 89 | 1016.7 |
| 20260508063021 | 48 | 257 | 0.9 | 4.3 | 0.00 | 0.00 | 0.00 | 90 | 1016.5 |
| 20260508061520 | 47 | 228 | 1.7 | 7.8 | 0.00 | 0.00 | 0.00 | 90 | 1016.5 |
| 20260508060019 | 47 | 221 | 0.9 | 3.5 | 0.00 | 0.00 | 0.00 | 90 | 1016.3 |
| 20260508054518 | 47 | 210 | 0.9 | 3.5 | 0.00 | 0.00 | 0.00 | 90 | 1016.5 |
| 20260508053017 | 47 | 214 | 1.7 | 4.3 | 0.00 | 0.00 | 0.00 | 89 | 1016.4 |
| 20260508051516 | 47 | 194 | 0.9 | 5.2 | 0.00 | 0.00 | 0.00 | 89 | 1016.3 |
| 20260508050015 | 47 | 143 | 0.9 | 5.2 | 0.00 | 0.00 | 0.00 | 89 | 1016.3 |
| 20260508044514 | 47 | 183 | 0.0 | 2.6 | 0.00 | 0.00 | 0.00 | 89 | 1016.2 |
| 20260508043013 | 47 | 212 | 0.0 | 4.3 | 0.00 | 0.00 | 0.00 | 89 | 1016.3 |
| 20260508041512 | 47 | 325 | 0.0 | 0.9 | 0.00 | 0.00 | 0.00 | 89 | 1016.2 |
| 20260508040011 | 47 | 215 | 0.9 | 4.3 | 0.00 | 0.00 | 0.00 | 89 | 1015.9 |
| 20260508034509 | 47 | 233 | 2.6 | 6.1 | 0.00 | 0.00 | 0.00 | 88 | 1015.8 |
| 20260508033009 | 47 | 215 | 3.5 | 7.0 | 0.00 | 0.00 | 0.00 | 88 | 1015.9 |
| 20260508031506 | 47 | 228 | 3.5 | 6.1 | 0.00 | 0.00 | 0.00 | 88 | 1015.9 |
| 20260508030005 | 47 | 225 | 0.9 | 5.2 | 0.00 | 0.00 | 0.00 | 87 | 1016.1 |
| 20260508024503 | 48 | 191 | 2.6 | 7.0 | 0.00 | 0.00 | 0.00 | 87 | 1016.0 |
| 20260508023003 | 48 | 219 | 1.7 | 7.8 | 0.00 | 0.00 | 0.00 | 86 | 1016.0 |
| 20260508021602 | 48 | 224 | 2.6 | 7.0 | 0.00 | 0.00 | 0.00 | 86 | 1016.1 |
| 20260508020103 | 48 | 212 | 2.6 | 7.8 | 0.00 | 0.00 | 0.00 | 86 | 1016.1 |
| 20260508014558 | 48 | 224 | 2.6 | 6.1 | 0.00 | 0.00 | 0.00 | 86 | 1016.0 |
| 20260508013100 | 48 | 225 | 1.7 | 5.2 | 0.00 | 0.00 | 0.00 | 86 | 1016.0 |
| 20260508011558 | 48 | 253 | 1.7 | 7.8 | 0.00 | 0.00 | 0.00 | 86 | 1016.1 |
| 20260508010053 | 48 | 197 | 1.7 | 7.0 | 0.00 | 0.00 | 0.00 | 86 | 1016.2 |
| 20260508004551 | 48 | 229 | 2.6 | 7.8 | 0.00 | 0.00 | 0.00 | 86 | 1016.1 |
| 20260508003049 | 48 | 203 | 4.3 | 12.2 | 0.00 | 0.00 | 0.00 | 86 | 1016.2 |
| 20260508001609 | 48 | 266 | 1.7 | 9.6 | 0.00 | 0.00 | 0.00 | 87 | 1016.3 |
| 20260508000047 | 48 | 225 | 3.5 | 9.6 | 0.00 | 0.00 | 0.00 | 87 | 1016.4 |
| 20260507234543 | 48 | 187 | 2.6 | 10.4 | 0.00 | 0.00 | 0.00 | 87 | 1016.3 |
| 20260507233039 | 48 | 270 | 4.3 | 10.4 | 0.00 | 0.00 | 0.00 | 88 | 1016.2 |
| 20260507231537 | 48 | 221 | 3.5 | 9.6 | 0.00 | 0.00 | 0.00 | 88 | 1016.1 |
| 20260507230030 | 47 | 202 | 3.5 | 7.8 | 0.00 | 0.00 | 0.00 | 89 | 1016.2 |
| 20260507224541 | 47 | 276 | 2.6 | 6.1 | 0.00 | 0.00 | 0.00 | 89 | 1016.3 |
| 20260507223029 | 47 | 262 | 2.6 | 7.0 | 0.00 | 0.00 | 0.00 | 89 | 1016.3 |
| 20260507221529 | 47 | 236 | 0.9 | 10.4 | 0.00 | 0.00 | 0.00 | 88 | 1016.4 |
| 20260507220039 | 47 | 208 | 2.6 | 7.8 | 0.00 | 0.00 | 0.00 | 88 | 1016.4 |
| 20260507214535 | 47 | 117 | 1.7 | 6.1 | 0.00 | 0.00 | 0.00 | 88 | 1016.3 |
| 20260507213032 | 47 | 240 | 1.7 | 7.0 | 0.00 | 0.00 | 0.00 | 88 | 1016.5 |
| 20260507211526 | 47 | 95 | 1.7 | 5.2 | 0.00 | 0.00 | 0.00 | 88 | 1016.3 |
| 20260507210026 | 47 | 273 | 0.0 | 5.2 | 0.00 | 0.00 | 0.00 | 87 | 1016.4 |
| 20260507204525 | 48 | 198 | 0.9 | 3.5 | 0.00 | 0.00 | 0.00 | 86 | 1016.4 |
| 20260507203029 | 48 | 146 | 1.7 | 3.5 | 0.00 | 0.00 | 0.00 | 86 | 1016.4 |
| 20260507201524 | 49 | 195 | 1.7 | 5.2 | 0.00 | 0.00 | 0.00 | 85 | 1016.3 |
| 20260507200027 | 49 | 124 | 0.9 | 7.8 | 0.00 | 0.00 | 0.00 | 85 | 1016.2 |
| 20260507194523 | 49 | 251 | 2.6 | 7.8 | 0.00 | 0.00 | 0.00 | 85 | 1016.1 |
| 20260507193025 | 49 | 134 | 0.9 | 8.7 | 0.00 | 0.00 | 0.00 | 84 | 1016.0 |
| 20260507191522 | 50 | 301 | 0.9 | 5.2 | 0.00 | 0.00 | 0.00 | 84 | 1015.9 |
| 20260507190022 | 50 | 82 | 1.7 | 7.0 | 0.00 | 0.00 | 0.00 | 83 | 1015.8 |
| 20260507184521 | 50 | 149 | 0.9 | 4.3 | 0.00 | 0.00 | 0.00 | 82 | 1016.0 |
| 20260507183023 | 51 | 124 | 1.7 | 6.1 | 0.00 | 0.00 | 0.00 | 81 | 1015.8 |
| 20260507181520 | 52 | 70 | 0.0 | 2.6 | 0.00 | 0.00 | 0.00 | 80 | 1015.8 |
| 20260507180024 | 52 | 94 | 2.6 | 6.1 | 0.00 | 0.00 | 0.00 | 79 | 1015.7 |
| 20260507174532 | 52 | 118 | 1.7 | 4.3 | 0.00 | 0.00 | 0.00 | 79 | 1015.8 |
| 20260507173020 | 52 | 329 | 0.9 | 5.2 | 0.00 | 0.00 | 0.00 | 79 | 1015.8 |
| 20260507171519 | 52 | 141 | 1.7 | 6.1 | 0.00 | 0.00 | 0.00 | 78 | 1015.8 |
| 20260507170025 | 53 | 120 | 0.9 | 4.3 | 0.00 | 0.00 | 0.00 | 78 | 1015.8 |
| 20260507164516 | 53 | 188 | 1.7 | 5.2 | 0.00 | 0.00 | 0.00 | 78 | 1016.0 |
| 20260507163015 | 53 | 195 | 1.7 | 4.3 | 0.00 | 0.00 | 0.00 | 77 | 1015.9 |
| 20260507161514 | 52 | 183 | 1.7 | 7.8 | 0.00 | 0.00 | 0.00 | 78 | 1015.9 |
| 20260507160016 | 53 | 93 | 2.6 | 6.1 | 0.00 | 0.00 | 0.00 | 76 | 1016.0 |
| 20260507154512 | 53 | 150 | 1.7 | 6.1 | 0.00 | 0.00 | 0.00 | 76 | 1016.0 |
| 20260507153018 | 54 | 229 | 1.7 | 4.3 | 0.00 | 0.00 | 0.00 | 75 | 1016.0 |
| 20260507151512 | 54 | 104 | 1.7 | 4.3 | 0.00 | 0.00 | 0.00 | 74 | 1016.0 |
| 20260507150011 | 55 | 82 | 1.7 | 8.7 | 0.00 | 0.00 | 0.00 | 74 | 1016.1 |
| 20260507144512 | 55 | 139 | 1.7 | 6.1 | 0.00 | 0.00 | 0.00 | 74 | 1016.1 |
| 20260507143009 | 55 | 79 | 4.3 | 10.4 | 0.00 | 0.00 | 0.00 | 73 | 1016.2 |
| 20260507141509 | 56 | 79 | 2.6 | 7.8 | 0.00 | 0.00 | 0.00 | 73 | 1016.2 |
| 20260507140008 | 56 | 126 | 2.6 | 6.1 | 0.00 | 0.00 | 0.00 | 71 | 1016.3 |
| 20260507134506 | 55 | 109 | 1.7 | 7.0 | 0.00 | 0.00 | 0.00 | 72 | 1016.3 |
| 20260507133006 | 55 | 134 | 3.5 | 7.0 | 0.00 | 0.00 | 0.00 | 72 | 1016.4 |
| 20260507131510 | 55 | 209 | 2.6 | 7.0 | 0.00 | 0.00 | 0.00 | 71 | 1016.3 |
| 20260507130004 | 55 | 253 | 1.7 | 7.8 | 0.00 | 0.00 | 0.00 | 71 | 1016.3 |
| 20260507124508 | 56 | 122 | 1.7 | 7.0 | 0.00 | 0.00 | 0.00 | 68 | 1016.4 |
| 20260507123002 | 55 | 92 | 1.7 | 9.6 | 0.00 | 0.00 | 0.00 | 69 | 1016.4 |
| 20260507121502 | 55 | 141 | 2.6 | 7.8 | 0.00 | 0.00 | 0.00 | 69 | 1016.4 |
| 20260507120005 | 55 | 236 | 1.7 | 6.1 | 0.00 | 0.00 | 0.00 | 69 | 1016.6 |
| 20260507114501 | 55 | 245 | 1.7 | 7.0 | 0.00 | 0.00 | 0.00 | 68 | 1016.6 |
| 20260507113102 | 56 | 120 | 0.9 | 7.8 | 0.00 | 0.00 | 0.00 | 66 | 1016.6 |
| 20260507111607 | 56 | 211 | 1.7 | 5.2 | 0.00 | 0.00 | 0.00 | 64 | 1016.8 |